Powrót do katalogu

SL-16 DEB

AktywnyLEO
NORAD 22333·DEBRIS·🇷🇺 Russia

Wystrzelony Dec 25, 1992 z Baikonur Cosmodrome

Loading…

Następne Przeloty (najbliższe 24 godziny)

TLE

ŚwieżeSource: Space-Track

Epoka: Sep 14, 2026, 09:32 UTC

1 22333U 92093W   26257.39740601  .00000303  00000-0  91969-4 0  9992
2 22333  71.0009 239.9591 0120598  68.6294 292.7663 14.46181261752968

Śledź SL-16 DEB w czasie rzeczywistym z AllMySat

Download on the App Store